Simultaneous Nadir Overpasses (SNOs) Predictions

Prediction of SNOs between GOES-17 and METOP-A Satellite Orbit:

Table of predicted SNOs for the next 14.0 days since TLE Epoch: 1/30/2021
Index Date Time (GOES-17) GOES-17 Lat,Lon METOP-A Lat,Lon Distance(km) Time Diff (sec)
1 01/31/2021 17:28:28 -0.00,-137.24 0.01,-137.29 5.21 80
2 02/03/2021 05:26:49 0.00,-137.24 0.08,-136.95 33.38 80
3 02/04/2021 17:45:41 -0.00,-137.25 0.97,-141.54 489.02 80
4 02/05/2021 17:27:41 -0.00,-137.25 -0.14,-136.56 77.86 80
5 02/07/2021 05:46:41 -0.00,-137.23 -0.88,-141.20 452.26 80
6 02/08/2021 05:23:22 -0.00,-137.22 0.23,-136.22 114.06 80
7 02/09/2021 17:42:13 0.00,-137.22 0.82,-140.82 409.71 80
8 02/10/2021 17:24:14 -0.00,-137.22 -0.29,-135.84 156.48 80
9 02/12/2021 05:43:14 -0.00,-137.19 -0.72,-140.48 374.21 80
